Regional Weather Roundup
Issued by NWS

Home | Current Version | Previous Version | Graphics & Text | Print | Product List | Glossary On
Versions: 1 2 3 4 5 6 7 8 9 10 11 12 13 14 15 16 17 18 19 20 21 22 23 24 25 26 27 28 29 30 31 32 33 34 35 36 37 38 39 40 41 42 43 44 45 46 47 48 49 50
000
ASUS43 KLOT 210210
RWRIL

ILLINOIS REGIONAL WEATHER ROUNDUP
NATIONAL WEATHER SERVICE CHICAGO/ROMEOVILLE IL
800 PM CST SAT DEC 20 2014

NOTE: "FAIR" INDICATES FEW OR NO CLOUDS BELOW 12,000 FEET WITH NO
SIGNIFICANT WEATHER AND/OR OBSTRUCTIONS TO VISIBILITY.

* THESE STATIONS ARE NOT UNDER NWS QUALITY CONTROL. THEY ALSO MAY NOT
  REPORT WEATHER SUCH AS PRECIPITATION OR FOG.

ILZ001-002-007-009-015-016-024-210300-
NORTHWEST ILLINOIS

CITY           SKY/WX    TMP DP  RH WIND       PRES   REMARKS
MOLINE         CLOUDY    34  29  82 SE5       30.21F WCI  30
STERLING*      CLOUDY    32  27  80 SE5       30.23F WCI  27
SAVANNA*       CLOUDY    33  28  83 SE5       30.22F WCI  28
$$

ILZ003-004-008-010-011-017-018-210300-
NORTH CENTRAL ILLINOIS

CITY           SKY/WX    TMP DP  RH WIND       PRES   REMARKS
ROCKFORD       CLOUDY    31  26  82 SE7       30.25F WCI  24
FREEPORT*      CLOUDY    29  26  87 SE5       30.23F FOG     WCI  24
ROCHELLE*      CLOUDY    30  28  92 S6        30.24S WCI  24
DE KALB*       CLOUDY    29  26  89 S8        30.24S WCI  21
PERU*          CLOUDY    33  30  87 S8        30.25F WCI  26
$$

ILZ005-006-012>014-019>023-210300-
NORTHEAST ILLINOIS

CITY           SKY/WX    TMP DP  RH WIND       PRES   REMARKS
CHICAGO-OHARE  CLOUDY    32  26  78 S6        30.25S WCI  26
CHICAGO-MIDWAY CLOUDY    34  26  72 S8        30.27S WCI  27
AURORA         CLOUDY    32  26  78 S7        30.26S WCI  26
LANSING*       CLOUDY    31  27  84 S3        30.28R
JOLIET*        CLOUDY    32  27  80 S3        30.27S
WAUKEGAN       CLOUDY    30  24  78 CALM      30.24F
DUPAGE AIRPORT CLOUDY    32  26  78 S6        30.25S WCI  26
KANKAKEE*      CLOUDY    32  28  86 S3        30.29S
WHEELING       CLOUDY    32  24  72 S3        30.27S
MORRIS*        CLOUDY    32  30  91 S6        30.26S WCI  26
ROMEOVILLE*    CLOUDY    32  27  81 S7        30.27R WCI  26
NORTHERLY ISL    N/A     33  26  76 S6          N/A  WCI  28
$$

LMZ740>746-210300-
SOUTHERN LAKE MICHIGAN

STATION/POSITION SKY/WX   TEMP    WIND        PRES    VSBY  WAVE
                          AIR SEA DIR/SP/G                  HT/PER
                          (F)     (DEG/KT/KT) (MB)    (MI)  (FT/S)
WAUKEGAN HARBOR            32        CALM       N/A
HARRISON CRIB              33     190/ 10/ 12   N/A
BURNHAM HARBOR             33     180/  5/  8   N/A
CALUMET HARBOR             33     170/  5/  7 1023.7S
$$

ILZ025>027-034>036-040-047-049-050-058-095>099-210300-
WEST-CENTRAL ILLINOIS

CITY           SKY/WX    TMP DP  RH WIND       PRES   REMARKS
QUINCY         CLOUDY    37  33  85 S10       30.19F WCI  30
GALESBURG*     CLOUDY    33  31  91 SE5       30.21F WCI  29
MACOMB*        CLOUDY    34  33  96 SE6       30.23F FOG     WCI  29
JACKSONVILLE*  CLOUDY    39  34  81 SE8       30.23F WCI  34
PITTSFIELD*    CLOUDY    37  34  88 SE5       30.24S WCI  33
$$

ILZ028>032-037-038-041>044-048-051>054-059>061-210300-
CENTRAL ILLINOIS

CITY           SKY/WX    TMP DP  RH WIND       PRES   REMARKS
PONTIAC        CLOUDY    33  31  91 S6        30.26F WCI  28
BLOOMINGTON    CLOUDY    32  30  92 S7        30.25F WCI  26
DECATUR        MOCLDY    32  27  81 SE6       30.27S WCI  26
PEORIA         CLOUDY    35  27  72 SE6       30.25S WCI  30
LACON*         CLOUDY    32  28  85 S3        30.24S
LINCOLN*       CLOUDY    34  31  87 SE5       30.27S WCI  30
SPRINGFIELD    CLOUDY    38  31  76 S9        30.25F WCI  31
TAYLORVILLE    CLOUDY    34  30  86 S6        30.26S WCI  29
$$

ILZ033-039-045-046-055>057-062-063-210300-
EAST-CENTRAL ILLINOIS

CITY           SKY/WX    TMP DP  RH WIND       PRES   REMARKS
CHAMPAIGN      CLOUDY    30  26  85 SE8       30.27F WCI  22
DANVILLE*      CLOUDY    32  26  81 SE3       30.25F
RANTOUL*       CLOUDY    33  29  86 S6        30.27S WCI  28
MATTOON        CLEAR     30  25  81 S5        30.27R WCI  25
PARIS*         PTCLDY    29  28  94 S3        30.30S
$$

ILZ079-100>102-210300-
SOUTHWEST ILLINOIS

CITY           SKY/WX    TMP DP  RH WIND       PRES   REMARKS
BELLEVILLE     CLOUDY    39  34  81 SE8       30.26S WCI  33
CAHOKIA*       CLOUDY    41  34  76 SE9       30.26S
SPARTA*        CLOUDY    38  32  78 SE5       30.28S WCI  35
$$

ILZ064>066-069>071-074>076-080>082-084>086-088>090-092>094-210300-
SOUTH-CENTRAL ILLINOIS

CITY           SKY/WX    TMP DP  RH WIND       PRES   REMARKS
CARBONDALE     CLOUDY    36  29  75 E6        30.28S WCI  31
CAIRO*         CLEAR     34  31  88 CALM      30.28S
EFFINGHAM*     MOCLDY    29  26  86 CALM      30.30S
MARION         CLOUDY    37  30  75 CALM      30.29S
MT. VERNON     CLOUDY    37  27  65 E3        30.29S
CENTRALIA*     CLOUDY    37  29  74 E3        30.28S
SALEM*         CLOUDY    38  29  70 SE5       30.29R WCI  35
METROPOLIS*    CLEAR     31  31  99 CALM      30.28R
$$

ILZ067-068-072-073-078-083-087-091-210300-
SOUTHEAST ILLINOIS

CITY           SKY/WX    TMP DP  RH WIND       PRES   REMARKS
LAWRENCEVILLE  CLEAR     28  26  92 CALM      30.31R FOG
FLORA*         CLEAR     33  29  84 SE5       30.30S WCI  29
FAIRFIELD*     CLOUDY    34  29  80 CALM      30.29R
HARRISBURG*    CLOUDY    36  31  82 E3        30.31R
ROBINSON*      CLEAR     27  26  97 CALM      30.32R
CARMI*         CLEAR     30  28  94 CALM      30.30R
$$

ABBREVIATIONS USED IN REMARKS
   TC - TEMPERATURE IN CELSIUS
  WCI - WIND CHILL INDEX
   HX - HEAT INDEX
  VSB - VISIBILITY
$$



USA.gov is the U.S. government's official web portal to all federal, state and local government web resources and services.